Location: *
(38.4303°S, 157.0822°W)
Time: 21:29:46
(UTC+00:00)

Lacrosse 5 rocket - Pass Details

Date: 21 May 2024
Orbit: 446 x 572 km, 57.0° (Epoch: 11 June)

Event Time Altitude Azimuth Distance (km) Brightness Sun altitude
Rises 16:36:13 0° 356° (N) 2,452 4.8 -10.4°
Reaches altitude 10° 16:38:52 10° 17° (NNE) 1,580 4.2 -9.9°
Maximum altitude 16:41:11 17° 58° (ENE) 1,233 4.4 -9.5°
Drops below altitude 10° 16:43:31 10° 100° (E) 1,591 4.8 -9.0°
Sets 16:46:12 0° 120° (ESE) 2,478 5.3 -8.6°
